GW6879 Weather Reports


Display with metric or nautical units.
time (UTC)temp
F
wind
direction
speed
MPH
gust
MPH
rain 1hr
in
rain 24hr
in
rain mn
in
humidity
%
barometer
mb
20260906230123 72 227 8.0 14.0 0.00 0.00 0.00 34 1022.8
20260906225538 72 329 4.0 14.0 0.00 0.00 0.00 33 1022.9
20260906225021 72 342 5.0 14.0 0.00 0.00 0.00 33 1022.9
20260906224606 72 246 5.0 11.0 0.00 0.00 0.00 32 1023.0
20260906224018 72 286 4.0 11.0 0.00 0.00 0.00 32 1023.0
20260906223525 73 232 2.0 12.0 0.00 0.00 0.00 32 1023.1
20260906223124 73 146 4.0 12.0 0.00 0.00 0.00 31 1022.9
20260906222531 73 259 2.0 9.0 0.00 0.00 0.00 31 1023.0
20260906222021 73 270 2.0 9.0 0.00 0.00 0.00 31 1022.9
20260906221624 74 229 3.0 11.0 0.00 0.00 0.00 31 1023.0
20260906221017 74 240 4.0 11.0 0.00 0.00 0.00 31 1023.0
20260906220523 74 200 4.0 11.0 0.00 0.00 0.00 31 1023.0
20260906220124 73 265 7.0 14.0 0.00 0.00 0.00 31 1023.1
20260906215520 73 216 8.0 14.0 0.00 0.00 0.00 31 1023.0
20260906215016 73 223 3.0 16.0 0.00 0.00 0.00 31 1023.1
20260906214641 73 192 5.0 16.0 0.00 0.00 0.00 31 1023.2
20260906214021 73 115 9.0 17.0 0.00 0.00 0.00 31 1023.1
20260906213518 74 218 8.0 15.0 0.00 0.00 0.00 30 1023.4
20260906213111 75 259 3.0 11.0 0.00 0.00 0.00 29 1023.4
20260906212523 76 252 4.0 11.0 0.00 0.00 0.00 29 1023.5
20260906212034 76 183 7.0 11.0 0.00 0.00 0.00 28 1023.6
20260906211623 76 215 6.0 11.0 0.00 0.00 0.00 27 1023.6
20260906211024 77 215 8.0 12.0 0.00 0.00 0.00 27 1023.4
20260906210538 77 252 3.0 12.0 0.00 0.00 0.00 26 1023.6
20260906210123 77 210 3.0 14.0 0.00 0.00 0.00 26 1023.6
20260906205528 78 204 7.0 14.0 0.00 0.00 0.00 26 1023.6
20260906205020 78 93 5.0 14.0 0.00 0.00 0.00 26 1023.7
20260906204626 78 213 6.0 14.0 0.00 0.00 0.00 25 1023.6
20260906204023 80 204 8.0 15.0 0.00 0.00 0.00 24 1023.7
20260906203525 81 199 8.0 12.0 0.00 0.00 0.00 24 1023.8
20260906203123 82 162 5.0 16.0 0.00 0.00 0.00 24 1023.9
20260906202518 82 202 6.0 16.0 0.00 0.00 0.00 24 1023.9
20260906202024 82 174 11.0 18.0 0.00 0.00 0.00 23 1023.9
20260906201622 80 149 5.0 13.0 0.00 0.00 0.00 25 1023.7
20260906201023 80 173 8.0 16.0 0.00 0.00 0.00 24 1023.7
20260906200535 81 167 7.0 16.0 0.00 0.00 0.00 24 1023.8
20260906200049 81 163 9.0 16.0 0.00 0.00 0.00 24 1023.7
20260906195518 79 161 7.0 16.0 0.00 0.00 0.00 25 1023.9
20260906195033 78 189 7.0 19.0 0.00 0.00 0.00 25 1024.0
20260906194547 80 226 8.0 27.0 0.00 0.00 0.00 25 1024.0
20260906194037 80 202 11.0 27.0 0.00 0.00 0.00 25 1023.8
20260906193524 80 160 10.0 19.0 0.00 0.00 0.00 24 1023.7
20260906193102 80 181 7.0 18.0 0.00 0.00 0.00 24 1023.8
20260906192528 81 153 9.0 17.0 0.00 0.00 0.00 24 1024.0
20260906192032 82 207 6.0 12.0 0.00 0.00 0.00 24 1024.0
20260906191641 81 194 5.0 13.0 0.00 0.00 0.00 24 1024.2
20260906191023 81 154 7.0 13.0 0.00 0.00 0.00 24 1024.4
20260906190535 80 178 5.0 11.0 0.00 0.00 0.00 25 1024.3
20260906190145 79 176 7.0 11.0 0.00 0.00 0.00 24 1024.4
20260906185524 79 175 5.0 16.0 0.00 0.00 0.00 25 1024.4
20260906185025 78 209 8.0 16.0 0.00 0.00 0.00 25 1024.5
20260906184640 78 196 6.0 14.0 0.00 0.00 0.00 25 1024.5
20260906184024 77 176 7.0 16.0 0.00 0.00 0.00 25 1024.8
20260906183533 76 184 4.0 10.0 0.00 0.00 0.00 26 1024.9
20260906183124 75 180 6.0 12.0 0.00 0.00 0.00 26 1024.9
20260906182539 76 189 3.0 15.0 0.00 0.00 0.00 26 1024.9
20260906182021 75 192 7.0 15.0 0.00 0.00 0.00 26 1024.9
20260906181629 75 195 6.0 14.0 0.00 0.00 0.00 26 1025.1
20260906181028 75 265 7.0 14.0 0.00 0.00 0.00 26 1025.3
20260906180526 76 167 5.0 13.0 0.00 0.00 0.00 26 1025.5
20260906180120 76 233 5.0 12.0 0.00 0.00 0.00 26 1025.3
20260906175530 75 202 4.0 15.0 0.00 0.00 0.00 25 1025.6
20260906175031 75 198 6.0 15.0 0.00 0.00 0.00 25 1025.5
20260906174658 75 180 6.0 14.0 0.00 0.00 0.00 26 1025.6
20260906174027 75 180 6.0 14.0 0.00 0.00 0.00 26 1025.6
20260906173527 76 202 5.0 13.0 0.00 0.00 0.00 25 1025.6
20260906173153 76 194 4.0 9.0 0.00 0.00 0.00 25 1025.6
20260906172531 76 144 5.0 12.0 0.00 0.00 0.00 24 1025.6
20260906172032 76 167 5.0 12.0 0.00 0.00 0.00 23 1025.8
20260906171633 77 197 5.0 10.0 0.00 0.00 0.00 22 1025.8
20260906171117 78 161 4.0 9.0 0.00 0.00 0.00 23 1025.7
20260906170537 76 205 5.0 9.0 0.00 0.00 0.00 23 1025.7
20260906170126 76 191 4.0 10.0 0.00 0.00 0.00 23 1025.8
20260906165518 75 181 3.0 14.0 0.00 0.00 0.00 24 1025.8
20260906165041 75 139 5.0 14.0 0.00 0.00 0.00 24 1025.8
20260906164644 76 161 3.0 9.0 0.00 0.00 0.00 24 1025.9
20260906164020 77 137 6.0 11.0 0.00 0.00 0.00 23 1026.0
20260906163523 77 162 3.0 14.0 0.00 0.00 0.00 24 1025.8
20260906163125 77 198 7.0 14.0 0.00 0.00 0.00 24 1025.8
20260906162543 76 159 3.0 10.0 0.00 0.00 0.00 24 1025.8
20260906162033 75 180 5.0 12.0 0.00 0.00 0.00 25 1025.7
20260906161647 75 163 5.0 12.0 0.00 0.00 0.00 25 1025.7
20260906161049 75 140 5.0 12.0 0.00 0.00 0.00 25 1025.8
20260906160537 74 160 6.0 12.0 0.00 0.00 0.00 25 1025.8
20260906160143 74 205 4.0 10.0 0.00 0.00 0.00 25 1025.7
20260906155546 74 150 5.0 10.0 0.00 0.00 0.00 25 1025.7
20260906155028 74 157 5.0 10.0 0.00 0.00 0.00 25 1025.7
20260906154638 74 153 5.0 8.0 0.00 0.00 0.00 25 1025.7
20260906154025 74 161 5.0 8.0 0.00 0.00 0.00 25 1025.7
20260906153529 74 163 3.0 8.0 0.00 0.00 0.00 26 1025.9
20260906153134 73 163 5.0 8.0 0.00 0.00 0.00 26 1025.9
20260906152535 72 144 3.0 10.0 0.00 0.00 0.00 27 1025.9
20260906152029 71 123 6.0 10.0 0.00 0.00 0.00 27 1025.8
20260906151638 70 146 3.0 9.0 0.00 0.00 0.00 29 1025.8
20260906151032 70 134 6.0 10.0 0.00 0.00 0.00 29 1025.7
20260906150545 69 141 7.0 11.0 0.00 0.00 0.00 29 1025.7
20260906150205 68 151 8.0 11.0 0.00 0.00 0.00 30 1025.7
20260906145520 68 141 7.0 13.0 0.00 0.00 0.00 30 1025.9
20260906145034 67 144 9.0 13.0 0.00 0.00 0.00 31 1025.9
20260906144627 67 136 9.0 13.0 0.00 0.00 0.00 31 1025.8
20260906144029 67 117 10.0 13.0 0.00 0.00 0.00 31 1025.8
20260906143527 67 135 9.0 12.0 0.00 0.00 0.00 31 1025.7
20260906143136 67 142 8.0 12.0 0.00 0.00 0.00 32 1025.6
20260906142519 66 129 7.0 12.0 0.00 0.00 0.00 33 1025.9
20260906142020 66 136 7.0 13.0 0.00 0.00 0.00 34 1025.9
20260906141623 65 147 8.0 15.0 0.00 0.00 0.00 34 1025.9
20260906141028 64 136 8.0 16.0 0.00 0.00 0.00 36 1025.9
20260906140524 64 112 11.0 18.0 0.00 0.00 0.00 37 1025.9
20260906140151 64 116 13.0 18.0 0.00 0.00 0.00 37 1025.9
20260906135559 64 137 11.0 16.0 0.00 0.00 0.00 36 1025.8
20260906135037 63 136 12.0 16.0 0.00 0.00 0.00 38 1025.8
20260906134619 63 132 11.0 17.0 0.00 0.00 0.00 38 1025.7
20260906134036 63 126 12.0 19.0 0.00 0.00 0.00 38 1025.6
20260906133541 63 137 12.0 18.0 0.00 0.00 0.00 38 1025.6
20260906133126 62 132 11.0 17.0 0.00 0.00 0.00 38 1025.4
20260906132522 62 115 10.0 17.0 0.00 0.00 0.00 37 1025.4
20260906132107 62 141 10.0 16.0 0.00 0.00 0.00 37 1025.4
20260906131609 62 125 10.0 16.0 0.00 0.00 0.00 37 1025.3
20260906131023 62 126 10.0 14.0 0.00 0.00 0.00 37 1025.2
20260906130527 62 134 9.0 14.0 0.00 0.00 0.00 36 1025.2
20260906130131 62 128 9.0 14.0 0.00 0.00 0.00 35 1025.2
20260906125616 63 121 9.0 14.0 0.00 0.00 0.00 35 1025.1
20260906125025 62 136 8.0 13.0 0.00 0.00 0.00 34 1025.1
20260906124659 62 138 7.0 12.0 0.00 0.00 0.00 34 1025.3
20260906124029 62 136 8.0 13.0 0.00 0.00 0.00 34 1025.2
20260906123542 62 132 7.0 14.0 0.00 0.00 0.00 34 1025.1
20260906123200 62 130 8.0 12.0 0.00 0.00 0.00 34 1025.1
20260906122542 62 141 7.0 11.0 0.00 0.00 0.00 34 1025.2
20260906122039 62 132 6.0 10.0 0.00 0.00 0.00 34 1025.2
20260906121552 62 137 5.0 10.0 0.00 0.00 0.00 35 1025.1
20260906121025 62 134 6.0 11.0 0.00 0.00 0.00 35 1025.0
20260906120618 62 132 8.0 11.0 0.00 0.00 0.00 35 1025.0
20260906120202 62 126 7.0 12.0 0.00 0.00 0.00 35 1025.0
20260906115531 62 137 7.0 12.0 0.00 0.00 0.00 35 1025.1
20260906115042 62 125 8.0 12.0 0.00 0.00 0.00 35 1025.1
20260906114619 62 149 6.0 10.0 0.00 0.00 0.00 35 1025.1
20260906114028 62 141 5.0 11.0 0.00 0.00 0.00 35 1025.0
20260906113533 63 137 6.0 11.0 0.00 0.00 0.00 35 1025.0
20260906113125 63 146 5.0 10.0 0.00 0.00 0.00 35 1025.0
20260906112528 62 123 6.0 9.0 0.00 0.00 0.00 35 1025.2
20260906112025 62 133 6.0 10.0 0.00 0.00 0.00 35 1025.2
20260906111604 62 141 5.0 10.0 0.00 0.00 0.00 35 1025.3
20260906111039 62 139 4.0 9.0 0.00 0.00 0.00 34 1025.3
20260906110532 62 141 5.0 10.0 0.00 0.00 0.00 35 1025.4
20260906110206 62 129 6.0 10.0 0.00 0.00 0.00 35 1025.4
20260906105538 62 138 5.0 11.0 0.00 0.00 0.00 35 1025.3
20260906105027 62 136 5.0 9.0 0.00 0.00 0.00 36 1025.2
20260906104657 62 122 6.0 9.0 0.00 0.00 0.00 35 1025.3
20260906104037 62 146 3.0 7.0 0.00 0.00 0.00 35 1025.3
20260906103537 62 155 3.0 5.0 0.00 0.00 0.00 34 1025.2
20260906103145 62 136 3.0 5.0 0.00 0.00 0.00 34 1025.3
20260906102526 62 165 2.0 7.0 0.00 0.00 0.00 34 1025.2
20260906102027 62 142 4.0 7.0 0.00 0.00 0.00 33 1025.0
20260906101624 62 146 3.0 7.0 0.00 0.00 0.00 34 1024.9
20260906101023 62 161 3.0 9.0 0.00 0.00 0.00 34 1024.8
20260906100542 63 163 5.0 8.0 0.00 0.00 0.00 33 1024.8
20260906100045 63 171 4.0 8.0 0.00 0.00 0.00 33 1024.8
20260906095532 63 169 5.0 9.0 0.00 0.00 0.00 33 1024.9
20260906095021 63 160 5.0 8.0 0.00 0.00 0.00 32 1024.9
20260906094619 63 169 3.0 8.0 0.00 0.00 0.00 33 1024.8
20260906094027 63 173 3.0 9.0 0.00 0.00 0.00 33 1024.8
20260906093527 63 165 4.0 9.0 0.00 0.00 0.00 33 1024.8
20260906093131 63 152 4.0 8.0 0.00 0.00 0.00 33 1024.9
20260906092523 62 160 4.0 9.0 0.00 0.00 0.00 34 1024.9
20260906092028 62 161 4.0 10.0 0.00 0.00 0.00 34 1024.9
20260906091642 62 147 5.0 10.0 0.00 0.00 0.00 34 1024.8
20260906091021 62 154 4.0 12.0 0.00 0.00 0.00 34 1024.7
20260906090525 63 153 5.0 13.0 0.00 0.00 0.00 34 1024.8
20260906090128 63 144 7.0 13.0 0.00 0.00 0.00 34 1024.7
20260906085603 63 164 5.0 10.0 0.00 0.00 0.00 34 1024.7
20260906085033 63 155 5.0 7.0 0.00 0.00 0.00 35 1024.7
20260906084545 63 152 3.0 10.0 0.00 0.00 0.00 34 1024.7
20260906084023 63 111 4.0 10.0 0.00 0.00 0.00 34 1024.7
20260906083528 63 138 6.0 10.0 0.00 0.00 0.00 34 1024.7
20260906083156 63 147 5.0 12.0 0.00 0.00 0.00 35 1024.8
20260906082529 63 146 5.0 13.0 0.00 0.00 0.00 34 1024.7
20260906082041 64 144 7.0 12.0 0.00 0.00 0.00 34 1024.7
20260906081659 64 146 7.0 11.0 0.00 0.00 0.00 35 1024.8
20260906081036 64 137 6.0 12.0 0.00 0.00 0.00 35 1024.8
20260906080533 64 124 9.0 12.0 0.00 0.00 0.00 35 1025.0
20260906080218 64 146 6.0 9.0 0.00 0.00 0.00 34 1024.9
20260906075517 64 137 5.0 9.0 0.00 0.00 0.00 34 1024.9
20260906075020 64 143 4.0 10.0 0.00 0.00 0.00 33 1025.1
20260906074642 64 130 5.0 12.0 0.00 0.00 0.00 33 1025.1
20260906074030 64 141 6.0 12.0 0.00 0.00 0.00 34 1025.2
20260906073541 64 138 4.0 10.0 0.00 0.00 0.00 35 1025.2
20260906073047 64 160 3.0 7.0 0.00 0.00 0.00 34 1025.2
20260906072528 64 154 3.0 10.0 0.00 0.00 0.00 34 1025.2
20260906072021 65 159 3.0 13.0 0.00 0.00 0.00 34 1025.2
20260906071639 65 138 8.0 14.0 0.00 0.00 0.00 34 1025.4
20260906071021 65 117 9.0 17.0 0.00 0.00 0.00 34 1025.4
20260906070533 66 130 12.0 17.0 0.00 0.00 0.00 34 1025.3
20260906070119 66 138 11.0 15.0 0.00 0.00 0.00 34 1025.2
20260906065544 66 129 11.0 15.0 0.00 0.00 0.00 34 1025.2
20260906065033 66 117 8.0 16.0 0.00 0.00 0.00 34 1025.2
20260906064619 66 119 9.0 16.0 0.00 0.00 0.00 34 1025.2
20260906064059 65 128 12.0 16.0 0.00 0.00 0.00 36 1025.1
20260906063525 65 136 4.0 9.0 0.00 0.00 0.00 36 1025.0
20260906063125 66 128 6.0 10.0 0.00 0.00 0.00 35 1025.1
20260906062531 66 142 7.0 14.0 0.00 0.00 0.00 35 1025.0
20260906062024 66 158 8.0 12.0 0.00 0.00 0.00 35 1025.0
20260906061632 65 131 7.0 11.0 0.00 0.00 0.00 36 1025.0
20260906061032 66 146 6.0 11.0 0.00 0.00 0.00 36 1025.1
20260906060536 66 130 5.0 8.0 0.00 0.00 0.00 34 1025.1
20260906060137 66 165 2.0 9.0 0.00 0.00 0.00 33 1025.2
20260906055536 66 142 6.0 9.0 0.00 0.00 0.00 34 1024.9
20260906055028 66 126 4.0 8.0 0.00 0.00 0.00 35 1025.0
20260906054627 66 126 4.0 8.0 0.00 0.00 0.00 34 1024.9
20260906054029 66 136 2.0 8.0 0.00 0.00 0.00 34 1025.0
20260906053524 66 125 5.0 8.0 0.00 0.00 0.00 35 1024.8
20260906053200 66 172 3.0 6.0 0.00 0.00 0.00 35 1024.9
20260906052538 65 150 2.0 5.0 0.00 0.00 0.00 37 1024.9
20260906052046 66 171 2.0 4.0 0.00 0.00 0.00 37 1025.0
20260906051638 66 161 1.0 5.0 0.00 0.00 0.00 36 1024.9
20260906051037 66 182 2.0 5.0 0.00 0.00 0.00 36 1025.1
20260906050527 66 211 3.0 5.0 0.00 0.00 0.00 35 1024.9
20260906050142 66 213 2.0 6.0 0.00 0.00 0.00 36 1024.9
20260906045521 66 193 2.0 6.0 0.00 0.00 0.00 36 1024.8
20260906045022 66 220 2.0 6.0 0.00 0.00 0.00 37 1024.8
20260906044641 66 202 2.0 6.0 0.00 0.00 0.00 37 1024.8
20260906044045 66 211 2.0 5.0 0.00 0.00 0.00 37 1024.9
20260906043525 65 197 2.0 5.0 0.00 0.00 0.00 38 1025.0
20260906043143 65 196 2.0 4.0 0.00 0.00 0.00 38 1025.0
20260906042532 66 166 2.0 9.0 0.00 0.00 0.00 38 1024.9
20260906042027 66 189 3.0 9.0 0.00 0.00 0.00 37 1025.0
20260906041659 66 200 2.0 4.0 0.00 0.00 0.00 38 1025.0
20260906041032 66 173 2.0 4.0 0.00 0.00 0.00 38 1025.0
20260906040532 66 173 1.0 3.0 0.00 0.00 0.00 38 1025.0
20260906040139 66 193 1.0 4.0 0.00 0.00 0.00 38 1025.0
20260906035519 66 194 2.0 4.0 0.00 0.00 0.00 37 1024.9
20260906035045 67 184 2.0 5.0 0.00 0.00 0.00 37 1025.0
20260906034606 67 188 2.0 5.0 0.00 0.00 0.00 37 1024.9
20260906034024 67 192 2.0 5.0 0.00 0.00 0.00 36 1024.9
20260906033532 68 193 2.0 5.0 0.00 0.00 0.00 36 1024.9
20260906033110 68 184 2.0 4.0 0.00 0.00 0.00 36 1025.0
20260906032523 68 180 2.0 4.0 0.00 0.00 0.00 35 1024.9
20260906032023 69 188 2.0 5.0 0.00 0.00 0.00 35 1024.9
20260906031644 69 189 2.0 5.0 0.00 0.00 0.00 34 1024.7
20260906031021 69 198 2.0 4.0 0.00 0.00 0.00 34 1024.7
20260906030543 69 188 2.0 4.0 0.00 0.00 0.00 34 1024.6
20260906025531 70 170 2.0 5.0 0.00 0.00 0.00 34 1024.4
20260906025116 70 188 2.0 4.0 0.00 0.00 0.00 33 1024.4
20260906024628 70 194 2.0 4.0 0.00 0.00 0.00 33 1024.4
20260906024036 70 211 1.0 5.0 0.00 0.00 0.00 33 1024.3
20260906023526 71 194 2.0 5.0 0.00 0.00 0.00 32 1024.2
20260906023119 71 223 1.0 6.0 0.00 0.00 0.00 32 1024.0
20260906022545 71 199 2.0 7.0 0.00 0.00 0.00 32 1023.9
20260906022035 71 217 3.0 7.0 0.00 0.00 0.00 32 1023.9
20260906021605 72 184 2.0 6.0 0.00 0.00 0.00 32 1024.0
20260906021029 72 219 2.0 8.0 0.00 0.00 0.00 31 1024.1
20260906020524 72 223 2.0 8.0 0.00 0.00 0.00 31 1024.0
20260906020112 72 216 4.0 8.0 0.00 0.00 0.00 31 1023.9
20260906015532 72 226 4.0 10.0 0.00 0.00 0.00 31 1024.0
20260906015037 73 233 5.0 10.0 0.00 0.00 0.00 31 1024.0
20260906014646 73 202 5.0 10.0 0.00 0.00 0.00 30 1023.9
20260906014044 73 223 5.0 10.0 0.00 0.00 0.00 30 1024.1
20260906013538 73 206 3.0 7.0 0.00 0.00 0.00 29 1023.9
20260906013126 74 192 3.0 6.0 0.00 0.00 0.00 29 1023.9
20260906012532 74 159 3.0 8.0 0.00 0.00 0.00 29 1024.0
20260906012025 74 124 4.0 10.0 0.00 0.00 0.00 28 1024.1
20260906011633 75 239 3.0 10.0 0.00 0.00 0.00 28 1024.2
20260906011025 75 220 3.0 10.0 0.00 0.00 0.00 28 1024.0
20260906010532 75 212 4.0 10.0 0.00 0.00 0.00 27 1024.0
20260906010135 76 238 4.0 10.0 0.00 0.00 0.00 27 1024.1
20260906005528 76 260 3.0 12.0 0.00 0.00 0.00 27 1024.3
20260906005024 76 207 4.0 12.0 0.00 0.00 0.00 26 1024.1
20260906004633 77 240 4.0 12.0 0.00 0.00 0.00 26 1024.3
20260906004027 77 9 5.0 12.0 0.00 0.00 0.00 26 1024.4
20260906003525 77 239 4.0 10.0 0.00 0.00 0.00 25 1024.4
20260906003146 77 185 3.0 10.0 0.00 0.00 0.00 24 1024.2
20260906002527 78 188 4.0 9.0 0.00 0.00 0.00 24 1024.3
20260906002029 78 162 4.0 9.0 0.00 0.00 0.00 24 1024.4
20260906001637 78 184 3.0 9.0 0.00 0.00 0.00 23 1024.4
20260906001111 78 226 5.0 9.0 0.00 0.00 0.00 23 1024.4
20260906000525 78 183 4.0 11.0 0.00 0.00 0.00 24 1024.3
20260906000215 78 204 5.0 11.0 0.00 0.00 0.00 24 1024.4
20260905235543 79 296 5.0 10.0 0.00 0.00 0.00 24 1024.3
20260905235044 79 207 3.0 10.0 0.00 0.00 0.00 23 1024.3
20260905234619 79 181 5.0 11.0 0.00 0.00 0.00 22 1024.2
20260905234025 79 221 6.0 13.0 0.00 0.00 0.00 22 1024.3
20260905233601 79 177 6.0 13.0 0.00 0.00 0.00 22 1024.4
20260905233216 79 165 3.0 12.0 0.00 0.00 0.00 23 1024.4
20260905232542 79 203 7.0 12.0 0.00 0.00 0.00 23 1024.4
20260905232042 79 175 5.0 10.0 0.00 0.00 0.00 23 1024.4
20260905231620 79 161 4.0 11.0 0.00 0.00 0.00 23 1024.3
20260905231038 79 175 6.0 15.0 0.00 0.00 0.00 23 1024.4
20260905230545 79 196 7.0 15.0 0.00 0.00 0.00 22 1023.9